STARLINK-36709

Last updated on Fri Mar 27 2026 00:02:06 GMT+0000 (Coordinated Universal Time)

1 67969U 26038J 26085.50002314 .00069865 00000+0 21520-2 0 9997 2 67969 97.2853 96.3666 0001828 69.9131 349.7234 15.33362824 5900
UTC large
Height (km)
Speed (km/s)
/
Latitude / Longitude
Inclination (degrees)
Orbital Period (minutes)
Azimuth
Elevation
Range (km)
Doppler Factor

Next 0 passes for location: London (51.5072 / 0.1276)

Sorry there are no passes over London.